FW0959 Weather Reports


Display with metric or nautical units.
time (UTC)temp
F
wind
direction
speed
MPH
gust
MPH
rain 1hr
in
rain 24hr
in
rain mn
in
humidity
%
barometer
mb
20260901043639 68 67 0.0 0.0 0.00 0.00 0.00 97 1026.8
20260901042637 68 67 0.0 0.0 0.00 0.00 0.00 96 1026.7
20260901041638 68 67 0.0 0.0 0.00 0.00 0.00 96 1026.6
20260901040640 68 67 0.0 0.0 0.00 0.00 0.00 96 1026.5
20260901035727 68 67 0.0 0.0 0.00 0.00 0.00 96 1026.6
20260901034729 68 67 0.0 0.0 0.00 0.00 0.00 95 1026.5
20260901033827 69 67 0.0 0.0 0.00 0.00 0.00 95 1026.4
20260901031926 69 67 0.0 0.0 0.00 0.00 0.00 94 1026.5
20260901031827 69 67 0.0 0.0 0.00 0.00 0.00 95 1026.4
20260901030827 69 67 0.0 0.0 0.00 0.00 0.00 95 1026.4
20260901025829 70 67 0.0 0.0 0.00 0.00 0.00 95 1026.6
20260901022928 70 67 0.0 0.0 0.00 0.00 0.00 94 1026.6
20260901022026 70 67 0.0 0.0 0.00 0.00 0.00 94 1026.6
20260901021029 71 67 0.0 0.0 0.00 0.00 0.00 93 1026.3
20260901020026 71 67 0.0 0.0 0.00 0.00 0.00 94 1026.3
20260901015026 71 67 0.0 0.0 0.00 0.00 0.00 94 1026.2
20260901014028 71 67 0.0 0.0 0.00 0.00 0.00 94 1026.0
20260901013125 71 67 1.0 1.0 0.00 0.00 0.00 93 1026.0
20260901011128 71 67 1.0 1.0 0.00 0.00 0.00 93 1025.7
20260901010225 71 67 1.0 2.0 0.00 0.00 0.00 93 1025.5
20260901005228 72 67 1.0 1.0 0.00 0.00 0.00 92 1025.6
20260901004228 72 67 0.0 0.0 0.00 0.00 0.00 92 1025.6
20260901003226 72 67 0.0 0.0 0.00 0.00 0.00 91 1025.6
20260901001228 73 67 2.0 2.0 0.00 0.00 0.00 89 1025.3
20260901000227 73 67 2.0 2.0 0.00 0.00 0.00 89 1025.4
20260901000130 73 67 2.0 2.0 0.00 0.00 0.00 88 1025.4
20260831235227 73 67 1.0 1.0 0.00 0.00 0.00 89 1025.4
20260831233325 74 67 1.0 1.0 0.00 0.00 0.00 89 1025.4
20260831232228 75 67 1.0 1.0 0.00 0.00 0.00 88 1025.5
20260831231228 76 67 1.0 1.0 0.00 0.00 0.00 86 1025.6
20260831225227 76 157 0.0 0.0 0.00 0.00 0.00 85 1025.6
20260831224227 76 157 0.0 0.0 0.00 0.00 0.00 84 1025.6
20260831223226 76 202 0.0 1.0 0.00 0.00 0.00 84 1025.7
20260831222226 76 202 0.0 0.0 0.00 0.00 0.00 84 1025.9
20260831220229 75 202 0.0 0.0 0.00 0.00 0.00 86 1026.0
20260831220127 75 202 0.0 0.0 0.00 0.00 0.00 86 1026.0
20260831215126 74 202 0.0 0.0 0.00 0.00 0.00 87 1026.0
20260831213225 76 22 0.0 2.0 0.00 0.00 0.00 82 1026.0
20260831210226 81 292 0.0 0.0 0.00 0.00 0.00 71 1026.5
20260831210126 81 292 0.0 0.0 0.00 0.00 0.00 70 1026.5
20260831205127 82 292 0.0 2.0 0.00 0.00 0.00 70 1026.2
20260831204126 83 247 0.0 0.0 0.00 0.00 0.00 69 1026.0
20260831203225 83 247 1.0 3.0 0.00 0.00 0.00 70 1026.1
20260831202228 81 247 0.0 0.0 0.00 0.00 0.00 72 1025.9
20260831201325 81 237 2.0 4.0 0.00 0.00 0.00 72 1026.0
20260831200326 81 308 1.0 3.0 0.00 0.00 0.00 76 1026.2
20260831195327 80 157 0.0 0.0 0.00 0.00 0.00 79 1026.3
20260831193326 77 337 0.0 0.0 0.00 0.00 0.00 85 1026.3
20260831191426 77 337 0.0 0.0 0.00 0.00 0.00 83 1026.4
20260831190426 77 341 0.0 1.0 0.00 0.00 0.00 84 1026.4
20260831190327 77 22 0.0 0.0 0.00 0.00 0.00 84 1026.4
20260831185327 77 22 1.0 2.0 0.00 0.00 0.00 84 1026.6
20260831184326 77 22 1.0 1.0 0.00 0.00 0.00 83 1026.6
20260831184228 77 22 1.0 1.0 0.00 0.00 0.00 84 1026.6
20260831182329 78 22 2.0 3.0 0.00 0.00 0.00 83 1026.6
20260831181327 77 22 2.0 2.0 0.00 0.00 0.00 81 1026.5
20260831180328 78 22 1.0 2.0 0.00 0.00 0.00 81 1026.5
20260831175326 78 112 0.0 1.0 0.00 0.00 0.00 81 1026.5
20260831174425 78 135 0.0 1.0 0.00 0.00 0.00 84 1026.5
20260831173427 77 157 2.0 3.0 0.00 0.00 0.00 86 1026.7
20260831172428 77 67 1.0 2.0 0.00 0.00 0.00 87 1026.8
20260831171525 76 67 1.0 1.0 0.00 0.00 0.00 90 1026.9
20260831170528 76 45 1.0 1.0 0.00 0.00 0.00 93 1027.0
20260831165527 75 72 1.0 2.0 0.00 0.00 0.00 95 1027.0
20260831164625 75 22 1.0 2.0 0.00 0.00 0.00 95 1027.0
20260831163626 75 45 0.0 0.0 0.00 0.00 0.00 97 1027.3
20260831162628 74 67 0.0 0.0 0.00 0.00 0.00 98 1027.3
20260831161651 73 67 0.0 0.0 0.00 0.00 0.00 98 1027.3
20260831160726 73 202 0.0 0.0 0.00 0.00 0.00 99 1027.3
20260831160627 72 202 0.0 0.0 0.00 0.00 0.00 98 1027.3
20260831155726 72 202 0.0 0.0 0.00 0.00 0.00 99 1027.3
20260831154726 71 202 0.0 0.0 0.00 0.00 0.00 100 1027.4
20260831154626 71 202 0.0 0.0 0.00 0.00 0.00 100 1027.4
20260831152527 69 202 0.0 0.0 0.00 0.00 0.00 100 1027.5
20260831151427 69 202 0.0 0.0 0.00 0.00 0.00 100 1027.6
20260831150426 68 202 0.0 0.0 0.00 0.00 0.00 100 1027.8
20260831145426 68 202 0.0 0.0 0.00 0.00 0.00 100 1027.8
20260831144426 68 202 0.0 0.0 0.00 0.00 0.00 100 1027.8
20260831141427 67 67 0.0 0.0 0.00 0.00 0.00 100 1027.7
20260831141325 67 67 0.0 0.0 0.00 0.00 0.00 100 1027.7
20260831140328 67 67 0.0 0.0 0.00 0.00 0.00 100 1027.7
20260831140226 67 67 0.0 0.0 0.00 0.00 0.00 100 1027.7
20260831134327 66 67 0.0 0.0 0.00 0.00 0.00 100 1027.7
20260831133328 66 67 0.0 0.0 0.00 0.00 0.00 100 1027.7
20260831130326 65 67 0.0 0.0 0.00 0.00 0.00 100 1027.5
20260831124328 65 67 0.0 0.0 0.00 0.00 0.00 100 1027.5
20260831122426 64 67 0.0 0.0 0.00 0.00 0.00 99 1027.5
20260831115625 63 67 0.0 0.0 0.00 0.00 0.00 99 1027.4
20260831114627 63 67 0.0 0.0 0.00 0.00 0.00 99 1027.3
20260831113725 63 67 0.0 0.0 0.00 0.00 0.00 99 1027.3
20260831112725 63 67 0.0 0.0 0.00 0.00 0.00 99 1027.3
20260831111726 63 67 0.0 0.0 0.00 0.00 0.00 99 1027.0
20260831110825 64 67 0.0 0.0 0.00 0.00 0.00 99 1027.0
20260831105826 64 67 0.0 0.0 0.00 0.00 0.00 99 1026.9
20260831105725 64 67 0.0 0.0 0.00 0.00 0.00 99 1026.9
20260831104728 64 67 0.0 0.0 0.00 0.00 0.00 98 1026.9
20260831103826 64 67 0.0 0.0 0.00 0.00 0.00 99 1026.8
20260831102825 64 67 0.0 0.0 0.00 0.00 0.00 99 1026.9
20260831101828 64 67 0.0 0.0 0.00 0.00 0.00 99 1026.8
20260831100828 64 67 0.0 0.0 0.00 0.00 0.00 99 1026.7
20260831095925 64 67 0.0 0.0 0.00 0.00 0.00 99 1026.6
20260831094927 64 67 0.0 0.0 0.00 0.00 0.00 99 1026.9
20260831093025 65 67 0.0 0.0 0.00 0.00 0.00 99 1026.7
20260831092927 65 67 0.0 0.0 0.00 0.00 0.00 99 1026.7
20260831091929 65 67 0.0 0.0 0.00 0.00 0.00 99 1026.8
20260831090926 65 67 0.0 0.0 0.00 0.00 0.00 99 1026.8
20260831090828 65 67 0.0 0.0 0.00 0.00 0.00 99 1026.8
20260831084926 65 67 0.0 0.0 0.00 0.00 0.00 98 1026.7
20260831083928 65 67 0.0 0.0 0.00 0.00 0.00 99 1026.6
20260831082927 65 67 0.0 0.0 0.00 0.00 0.00 99 1026.6
20260831080926 66 67 0.0 0.0 0.00 0.00 0.00 99 1026.9
20260831075926 65 67 0.0 0.0 0.00 0.00 0.00 98 1026.7
20260831075828 65 67 0.0 0.0 0.00 0.00 0.00 98 1026.7
20260831074926 65 67 0.0 0.0 0.00 0.00 0.00 98 1026.6
20260831074025 65 67 0.0 0.0 0.00 0.00 0.00 98 1026.7
20260831073925 65 67 0.0 0.0 0.00 0.00 0.00 97 1026.7
20260831072926 65 67 0.0 0.0 0.00 0.00 0.00 98 1026.6
20260831071926 65 67 0.0 0.0 0.00 0.00 0.00 98 1026.4
20260831071826 65 67 0.0 0.0 0.00 0.00 0.00 98 1026.4
20260831070826 66 67 0.0 0.0 0.00 0.00 0.00 98 1026.6
20260831065826 66 67 0.0 0.0 0.00 0.00 0.00 98 1026.6
20260831064828 66 67 0.0 0.0 0.00 0.00 0.00 98 1026.5
20260831063827 66 67 0.0 0.0 0.00 0.00 0.00 98 1026.7
20260831062827 66 67 0.0 0.0 0.00 0.00 0.00 98 1026.7
20260831061826 66 67 0.0 0.0 0.00 0.00 0.00 97 1026.7
20260831055825 66 67 0.0 0.0 0.00 0.00 0.00 97 1026.8
20260831054828 66 67 0.0 0.0 0.00 0.00 0.00 97 1027.0
20260831053925 66 67 0.0 0.0 0.00 0.00 0.00 97 1027.0
20260831052926 67 67 0.0 0.0 0.00 0.00 0.00 96 1027.0
20260831051926 67 67 0.0 0.0 0.00 0.00 0.00 96 1027.0
20260831051025 67 67 0.0 0.0 0.00 0.00 0.00 96 1027.0
20260831050026 67 67 0.0 0.0 0.00 0.00 0.00 96 1026.9
20260831045028 68 67 0.0 0.0 0.00 0.00 0.00 96 1027.0